TimeCDT,TemperatureF,Dew PointF,Humidity,Sea Level PressureIn,VisibilityMPH,Wind Direction,Wind SpeedMPH,Gust SpeedMPH,PrecipitationIn,Events,Conditions,WindDirDegrees,DateUTC
12:58 AM,73.0,58.1,59,30.02,10.0,SSE,5.8,-,N/A,,Clear,150,2013-08-22 05:58:00
1:58 AM,70.2,59.0,68,30.01,10.0,SE,4.6,-,N/A,,Clear,140,2013-08-22 06:58:00
2:58 AM,70.3,59.5,69,30.01,10.0,East,4.6,-,N/A,,Clear,90,2013-08-22 07:58:00
3:58 AM,69.3,60.3,73,30.01,10.0,East,6.9,-,N/A,,Clear,90,2013-08-22 08:58:00
4:58 AM,68.7,61.3,77,29.99,10.0,ESE,3.5,-,N/A,,Clear,110,2013-08-22 09:58:00
5:58 AM,68.0,61.9,81,30.01,10.0,East,4.6,-,N/A,,Clear,100,2013-08-22 10:58:00
6:58 AM,67.1,62.2,84,30.02,10.0,ESE,5.8,-,N/A,,Clear,120,2013-08-22 11:58:00
7:58 AM,69.4,63.7,82,30.04,10.0,East,4.6,-,N/A,,Clear,80,2013-08-22 12:58:00
8:58 AM,76.1,65.7,70,30.05,10.0,SE,6.9,-,N/A,,Clear,140,2013-08-22 13:58:00
9:58 AM,82.9,66.6,58,30.05,10.0,SW,4.6,-,N/A,,Clear,230,2013-08-22 14:58:00
10:58 AM,84.9,65.8,53,30.06,10.0,Variable,3.5,-,N/A,,Clear,0,2013-08-22 15:58:00
11:58 AM,90.0,65.3,44,30.02,10.0,Variable,1.2,-,N/A,,Clear,0,2013-08-22 16:58:00
12:58 PM,94.8,60.4,32,29.99,10.0,Variable,2.3,-,N/A,,Mostly Cloudy,0,2013-08-22 17:58:00
1:58 PM,96.3,59.5,29,29.99,10.0,South,12.7,17.3,N/A,,Scattered Clouds,190,2013-08-22 18:58:00
2:58 PM,97.5,60.4,29,29.96,10.0,SSW,6.9,18.4,N/A,,Scattered Clouds,200,2013-08-22 19:58:00
3:58 PM,98.2,57.7,26,29.93,10.0,South,11.5,18.4,N/A,,Partly Cloudy,180,2013-08-22 20:58:00
4:58 PM,98.2,58.5,27,29.91,10.0,SSW,11.5,-,N/A,,Scattered Clouds,200,2013-08-22 21:58:00
5:58 PM,96.3,59.4,29,29.90,10.0,SSE,11.5,-,N/A,,Partly Cloudy,160,2013-08-22 22:58:00
6:58 PM,94.8,59.4,31,29.89,10.0,South,11.5,-,N/A,,Clear,190,2013-08-22 23:58:00
7:58 PM,92.7,59.4,33,29.90,10.0,SSE,9.2,-,N/A,,Clear,150,2013-08-23 00:58:00
8:58 PM,85.8,60.3,42,29.91,10.0,SE,6.9,-,N/A,,Clear,130,2013-08-23 01:58:00
9:58 PM,82.0,61.0,49,29.94,10.0,ESE,8.1,-,N/A,,Clear,120,2013-08-23 02:58:00
10:58 PM,84.4,64.2,51,29.96,10.0,SE,10.4,-,N/A,,Partly Cloudy,140,2013-08-23 03:58:00
11:58 PM,83.1,64.6,53,29.96,10.0,SSE,8.1,-,N/A,,Mostly Cloudy,150,2013-08-23 04:58:00